Preview of NWS' New Version of Forecast
This preview is not operational and should not be used for support decisions.

Regional Weather Roundup (RWR)

Issued by Gray - Portland, ME (GYX)

                            
000
ASUS41 KGYX 231105
RWRGYX
WEATHER ROUNDUP FOR MAINE AND NEW HAMPSHIRE
NATIONAL WEATHER SERVICE GRAY ME
700 AM EDT SAT MAR 23 2019

MEZ002-005-006-010-012-015-018-020-021-024-026-027-029-231200-
MAINE
  
CITY           SKY/WX    TMP DP  RH WIND       PRES   REMARKS
PORTLAND       MOCLDY    39  31  72 NW16      29.21R                  
SANFORD        CLOUDY    36  31  82 W13       29.25R                  
BAR HARBOR     LGT SNOW  34  33  96 NW8       29.09R FOG              
WISCASSET      CLOUDY    36  33  89 VRB5      29.18R                  
ROCKLAND       CLOUDY    35  33  92 NW8       29.13R                  
FRYEBURG       CLOUDY    39  27  62 W8        29.25                   
LEWISTONAUBURN CLOUDY    38  28  67 NW18G26   29.20R                  
AUGUSTA        CLOUDY    36  30  79 NW12G21   29.18R                  
BANGOR         LGT RAIN  36  33  89 NW12      29.12R                  
GREENVILLE       N/A     30  28  92 NW21G36   29.09R WCI  17          
MILLINOCKET    NOT AVBL                                               
HOULTON        LGT SNOW  33  32  96 N8        29.05R FOG              
PRESQUE ISLE   LGT SNOW  33  31  92 NW13      29.10R FOG              
FRENCHVILLE    LGT SNOW  33  28  81 N16       29.10R                  
CARIBOU        LGT SNOW  34  30  85 NW17G23   29.07S VSB 1            
$$

NHZ002-005-008-009-011-012-014-231200-
NEW HAMPSHIRE
  
CITY           SKY/WX    TMP DP  RH WIND       PRES   REMARKS
ROCHESTER      MOCLDY    37  27  67 NW14G31   29.25R                  
NASHUA         CLOUDY    34  28  79 W17G25    29.37R                  
MANCHESTER     CLOUDY    37  24  59 NW17G37   29.34R                  
CONCORD        CLOUDY    34  25  69 NW18G29   29.36R                  
LACONIA        CLOUDY    33  24  69 W13G25    29.34R                  
PLYMOUTH       LGT SNOW  32  25  77 NW26G39   29.35R WCI  18          
BERLIN         LGT SNOW  33  28  81 MISG      29.28R                  
WHITEFIELD     NOT AVBL                                               
JAFFREY        MOCLDY    29  24  82 W14G22    29.40R WCI  18          
KEENE          LGT SNOW  29  24  82 W9G21     29.47R                  
LEBANON        CLOUDY    32  19  58 NW22G31   29.45R WCI  19          
MT WASHINGTON  SNOWSHWR  12  12 100 NW74G96     N/A  VSB 1/16WCI -17  
$$

VTZ005-007-008-231200-
VERMONT
  
CITY           SKY/WX    TMP DP  RH WIND       PRES   REMARKS
ST JOHNSBURY     N/A     28  24  85 MISG      29.43R                  
MONTPELIER     LGT SNOW  24  22  91 NW31G44   29.50R FOG     WCI   7  
BURLINGTON     SNOW      24  21  88 NW14      29.61R VSB 1/2 WCI  12  
$$

MAZ007-012-024-CTZ003-RIZ002-NYZ038-NYZ072-231200-
SOUTHERN NEW ENGLAND AND NY
  
CITY           SKY/WX    TMP DP  RH WIND       PRES   REMARKS
BOSTON         FLURRIES  35  28  75 W22G35    29.35R                  
WORCESTER      LGT SNOW  26  23  88 W22G35    29.39R VSB 3/4 WCI  12  
NANTUCKET      LGT SNOW  33  30  88 W21G38    29.39R FOG              
PROVIDENCE     CLOUDY    31  25  78 W24G36    29.45R WCI  17          
HARTFORD       CLOUDY    32  20  61 NW24G38   29.55R WCI  19          
ALBANY         CLOUDY    29  18  63 NW23G39   29.67R WCI  15          
NEW YORK CITY  MOCLDY    35  20  54 NW22G33   29.70R                  
$$

ANZ081-ANZ082-ANZ150-NHZ014-MEZ023>029-231200-
COASTAL MARINE OBSERVATIONS
  
STATION/POSITION TIME  TEMP    WIND        PRES    WAVE
                       AIR SEA DIR/SP/G            HT/PER
                 (UTC) (F)     (DEG/KT/KT) (MB)    (FT/S)
MOUNT DESERT ROC 1000   33     270/ 14/ 16  983.3R
MATINICUS ROCK   1000   34     300/ 23/ 25  984.2R
ISLE OF SHOALS   1000   37     280/ 24/ 26  988.9R
CASHES LEDGE BUO 1050   36 40               987.0R  11/11
$$

.............KEY..............
   WCI - WIND CHILL
   TC  - TEMPERATURE IN CELSIUS
   VSB - VISIBILITY IN MILES
   HX  - HEAT INDEX
   FAIR- INDICATES FEW OR NO CLOUDS BELOW 12,000 FT, WITH NO 
         SIGNIFICANT WEATHER AND/OR OBSTRUCTIONS TO VISIBILITY.